PORT of AGADIR

Valsts: Morocco Valsts: Morocco (MA)
Platums / garums: 30.4215° / -9.634° Rādīt kartē Rādīt kartē
Vietējais laiks:  UTC +1
UN/LOCODE: MAAGA
Kuģi pašreiz ostā: 2
Gaidāmās pienākšanas: 13

Nesenās pienākšanas un atiešanas


Kuģa nosaukums
Pienākšana (UTC)
Pienākšana (LT)
Atiešana (UTC)
Atiešana (LT)
Vessel Type: Velkoņi, loču kuteri  HIGHLAND PRINCESS 2014-10-21 21:38:00 2014-10-21 22:38:00 2014-10-22 22:26:00 2014-10-22 23:26:00
Vessel Type: Zvejas  CURBEIRO 2014-10-22 09:50:00 2014-10-22 10:50:00 2014-10-22 19:23:00 2014-10-22 20:23:00
Vessel Type: Zvejas  ZAKHAR SOROKIN 2014-10-21 07:06:00 2014-10-21 08:06:00 2014-10-22 16:00:00 2014-10-22 17:00:00
Vessel Type: Kravas kuģi  JAMILA 2014-10-20 05:30:00 2014-10-20 06:30:00 2014-10-22 06:32:00 2014-10-22 07:32:00
Vessel Type: Kravas kuģi  LADY ROSEBUD 2014-09-24 12:49:00 2014-09-24 13:49:00 2014-10-21 18:48:00 2014-10-21 19:48:00
Vessel Type: Kravas kuģi  RBD DALMATIA 2014-10-20 13:57:00 2014-10-20 14:57:00 2014-10-21 16:35:00 2014-10-21 17:35:00
Vessel Type: Tankkuģi  TINGIS 2014-10-01 16:04:00 2014-10-01 17:04:00 2014-10-20 23:03:00 2014-10-21 00:03:00
Vessel Type: Kravas kuģi  METSABORG 2014-10-20 22:10:00 2014-10-20 23:10:00
Vessel Type: Velkoņi, loču kuteri  UOS FREEDOM 2014-10-20 05:45:00 2014-10-20 06:45:00 2014-10-20 18:52:00 2014-10-20 19:52:00
Vessel Type: Tankkuģi  STINA KOSAN 2014-10-18 08:04:00 2014-10-18 09:04:00 2014-10-19 16:33:00 2014-10-19 17:33:00

Gaidāmās pienākšanas


Kuģa nosaukums
Scheduled Arrival (UTC)
Paredzētā pienākšana (vietējais laiks)
Plānotā pienākšana (UTC)
Plānotais pienākšanas laiks (vietējais laiks)
Vessel Type: Kravas kuģi  SATIGNY 2014-10-22 06:00:00 2014-10-22 07:00:00
Vessel Type: Kravas kuģi  OPDR LISBOA 2014-10-22 19:00:00 2014-10-22 20:00:00 2014-10-22 18:49:00 2014-10-22 19:49:00
Vessel Type: Kravas kuģi  MSC ALABAMA 2014-10-22 19:00:00 2014-10-22 20:00:00 2014-10-23 10:13:00 2014-10-23 11:13:00
Vessel Type: Kravas kuģi  WES AMELIE 2014-10-23 05:00:00 2014-10-23 06:00:00
Vessel Type: Velkoņi, loču kuteri  C EMPRESS 2014-10-23 12:00:00 2014-10-23 13:00:00
Vessel Type: Kravas kuģi  THOR INDEPENDENCE 2014-10-24 06:00:00 2014-10-24 07:00:00 2014-10-24 05:08:00 2014-10-24 06:08:00
Vessel Type: Kravas kuģi  TASMAN MERMAID 2014-10-24 08:00:00 2014-10-24 09:00:00 2014-10-24 07:51:00 2014-10-24 08:51:00
Vessel Type: Tankkuģi  GREMIO 2014-10-24 15:00:00 2014-10-24 16:00:00 2014-10-25 13:18:00 2014-10-25 14:18:00
Vessel Type: Kravas kuģi  AFRICA B 2014-10-24 16:00:00 2014-10-24 17:00:00 2014-10-24 17:13:00 2014-10-24 18:13:00
Vessel Type: Tankkuģi  GASCHEM JADE 2014-10-25 07:00:00 2014-10-25 08:00:00

Wind Forecast


    
Laiks (UTC)
Ātrums
DirectionDirection
Temperature
2014-10-23 00:00:00 9 knots 160° 24°C
2014-10-23 03:00:00 9 knots 123° 24°C
2014-10-23 06:00:00 9 knots 114° 25°C
2014-10-23 09:00:00 5 knots 117° 26°C
2014-10-23 12:00:00 8 knots 329° 25°C
2014-10-23 15:00:00 11 knots 351° 24°C
2014-10-23 18:00:00 9 knots 349° 24°C
2014-10-23 21:00:00 5 knots 279° 25°C
2014-10-24 00:00:00 6 knots 158° 24°C
2014-10-24 03:00:00 8 knots 139° 23°C
2014-10-24 06:00:00 6 knots 118° 23°C
2014-10-24 09:00:00 2 knots 281° 23°C
2014-10-24 12:00:00 8 knots 326° 22°C
2014-10-24 15:00:00 10 knots 346° 22°C
2014-10-24 18:00:00 9 knots 337° 22°C
2014-10-24 21:00:00 5 knots 334° 22°C
2014-10-25 00:00:00 5 knots 113° 22°C